Location: �clusier
(49.9361°N, 2.7869°E)
Time: 12:12:00
(UTC+00:00)

Cosmos 1452 Rocket - Pass Details

Date: 29 October 2021
Orbit: 767 x 775 km, 74.1° (Epoch: 26 November)

Event Time Altitude Azimuth Distance (km) Brightness Sun altitude
Rises 04:17:57 0° 340° (NNW) 3,267 6.6 -22.3°
Reaches altitude 10° 04:20:33 10° 349° (N) 2,335 5.9 -21.9°
Maximum altitude 04:25:24 35° 55° (NE) 1,237 5.0 -21.1°
Drops below altitude 10° 04:30:13 10° 121° (ESE) 2,320 6.8 -20.3°
Sets 04:32:46 0° 130° (SE) 3,242 7.5 -19.9°
